[[{"header":{"parameterUnit":"m.s-1","parameterCategory":1,"la1":30.2992,"la2":30.254,"lo1":-89.0895,"lo2":-89.0443,"dy":0.0025,"dx":0.0025,"nx":19,"ny":19,"refTime":"2026-04-01T21:00:00:Z","depth":0,"parameterNumber":2,"parameterNumberName":"U-component_of_WINDS"},"data":[0,0,0,-4.0246,-4.0248,-4.0369,-4.0369,-4.0522,-4.0523,0,0,0,0,0,0,0,0,0,0,0,-4.021,-4.0211,-4.0246,-4.0249,-4.0369,-4.0369,-4.0522,-4.0524,0,0,0,0,0,0,0,0,0,0,0,-4.0209,-4.021,-4.0212,-4.0249,-4.0368,-4.0369,-4.0522,-4.0431,0,0,0,0,0,0,0,0,0,0,-4.0315,-4.028,-4.021,-4.0212,-4.025,-4.0368,-4.0369,-4.0427,-4.0437,-4.0468,0,-4.0494,0,-4.0512,-4.0534,-4.0534,0,0,0,-4.0249,-4.0272,-4.0305,-4.0212,-4.0251,-4.0368,-4.0314,-4.0432,-4.0444,-4.0481,-4.0497,-4.0502,-4.0514,-4.0535,-4.0535,-4.0713,-4.0714,0,0,-4.0242,-4.023,-4.0297,-4.0312,-4.0294,-4.0311,-4.0318,-4.0439,-4.0456,-4.0497,-4.0506,-4.0517,-4.0536,-4.0537,-4.0713,-4.0714,0,0,0,-4.0223,-4.0226,-4.0256,-4.0306,-4.0328,-4.0314,-4.0323,-4.045,-4.0461,-4.0508,-4.0518,-4.0537,-4.0538,-4.0712,-4.0713,-4.0742,0,0,0,-4.0219,-4.0215,-4.0253,-4.0247,-4.0326,-4.039,-4.0331,-4.0453,-4.0467,-4.0518,-4.0537,-4.054,-4.0711,-4.0712,-4.0739,-4.0756,0,0,0,-4.0202,-4.0213,-4.023,-4.0246,-4.0298,-4.0389,-4.0407,-4.0456,-4.0474,-4.0534,-4.054,-4.071,-4.0712,-4.0737,-4.0753,-4.08,0,0,0,-4.018,-4.0253,-4.023,-4.0316,-4.0297,-4.0406,-4.0406,-4.0488,-4.0544,-4.0537,-4.0711,-4.0713,-4.0736,-4.075,-4.0797,-4.0837,-4.0852,0,0,-4.0265,-4.0262,-4.0314,-4.0298,-4.0408,-4.0389,-4.0505,-4.0566,-4.0582,-4.0669,-4.0673,-4.074,-4.0752,-4.0799,-4.0947,-4.0959,0,0,0,-4.0337,-4.0374,-4.0406,-4.0459,-4.0509,-4.0554,-4.06,-4.0624,-4.0698,-4.0625,-4.0771,-4.0779,-4.0807,-4.0826,-4.0837,-4.0862,-4.0722,-4.0722,-4.0721,-4.0438,-4.0457,-4.0544,-4.0579,-4.0631,-4.0679,-4.0723,-4.0763,-4.0765,-4.08,-4.0825,-4.0912,-4.0935,-4.0943,-4.0968,-4.0849,-4.0849,-4.0849,-4.0849,-4.0563,-4.0618,-4.0624,-4.071,-4.073,-4.0802,-4.0854,-4.0854,-4.0924,-4.0894,-4.092,-4.0884,-4.0956,-4.0979,-4.0852,-4.0851,-4.0851,-4.0851,-4.085,-4.063,-4.066,-4.0689,-4.077,-4.0831,-4.0864,-4.0933,-4.0949,-4.0965,-4.0991,-4.1019,-4.1018,-4.1019,-4.1004,-4.1004,-4.1004,-4.1004,-4.1005,-4.1005,-4.0687,-4.0719,-4.0775,-4.0838,-4.0876,-4.0928,-4.098,-4.1018,-4.1064,-4.1071,-4.1071,-4.107,-4.096,-4.0931,-4.101,-4.1009,-4.1008,-4.1008,-4.1007,-4.0803,-4.0781,-4.0867,-4.0905,-4.0981,-4.1042,-4.1063,-4.114,-4.1174,-4.1208,-4.1204,-4.112,-4.1117,-4.1109,-4.1085,-4.1199,-4.1199,-4.1199,-4.1199,-4.0858,-4.086,-4.0953,-4.1014,-4.1076,-4.1105,-4.1203,-4.1247,-4.1287,-4.131,-4.1297,-4.1267,-4.1258,-4.1261,-4.125,-4.1227,-4.1375,-4.1375,-4.1376,-4.0931,-4.094,-4.1019,-4.106,-4.1122,-4.1176,-4.1269,-4.1339,-4.1381,-4.1383,-4.1328,-4.1321,-4.1273,-4.1257,-4.1254,-4.1236,-4.1195,0,0]},{"header":{"parameterUnit":"m.s-1","parameterCategory":1,"la1":30.2992,"la2":30.254,"lo1":-89.0895,"lo2":-89.0443,"dy":0.0025,"dx":0.0025,"nx":19,"ny":19,"refTime":"2026-04-01T21:00:00:Z","depth":0,"parameterNumber":3,"parameterNumberName":"V-component_of_WINDS"},"data":[0,0,0,2.5816,2.5816,2.5852,2.5852,2.589,2.589,0,0,0,0,0,0,0,0,0,0,0,2.5802,2.5802,2.5816,2.5816,2.5852,2.5852,2.589,2.589,0,0,0,0,0,0,0,0,0,0,0,2.5802,2.5802,2.5802,2.5817,2.5852,2.5852,2.589,2.5865,0,0,0,0,0,0,0,0,0,0,2.5832,2.5816,2.5802,2.5802,2.5817,2.5851,2.5852,2.5864,2.5867,2.5871,0,2.5875,0,2.5884,2.5892,2.5893,0,0,0,2.5818,2.5814,2.5827,2.5802,2.5817,2.5851,2.5836,2.5866,2.5869,2.5875,2.5876,2.5878,2.5884,2.5893,2.5893,2.5919,2.5919,0,0,2.5816,2.5806,2.5825,2.5829,2.5824,2.5835,2.5837,2.5868,2.5868,2.5876,2.5879,2.5885,2.5893,2.5893,2.5919,2.5919,0,0,0,2.5809,2.5804,2.5817,2.5827,2.5834,2.5836,2.5839,2.5866,2.5871,2.5879,2.5885,2.5893,2.5893,2.5919,2.5919,2.5912,0,0,0,2.5808,2.58,2.5816,2.5809,2.5834,2.5851,2.5836,2.5869,2.5873,2.5885,2.5893,2.5894,2.5919,2.5919,2.5912,2.591,0,0,0,2.5801,2.5799,2.5804,2.5809,2.5824,2.5851,2.5857,2.587,2.5877,2.5893,2.5894,2.5919,2.5919,2.5912,2.591,2.5916,0,0,0,2.5788,2.5794,2.5803,2.5812,2.5824,2.5847,2.5857,2.5874,2.5887,2.5893,2.5919,2.5919,2.5912,2.591,2.5916,2.5919,2.5919,0,0,2.5789,2.5794,2.58,2.581,2.5829,2.5842,2.586,2.588,2.589,2.5908,2.5909,2.5912,2.591,2.5916,2.5923,2.5923,0,0,0,2.5797,2.5801,2.5809,2.5822,2.584,2.5856,2.5875,2.5884,2.5901,2.5898,2.5916,2.5915,2.5918,2.592,2.592,2.5925,2.5919,2.5919,2.5919,2.5781,2.5797,2.581,2.5831,2.5844,2.5867,2.5879,2.5894,2.5902,2.5907,2.5912,2.5915,2.5917,2.5917,2.5921,2.5914,2.5914,2.5914,2.5914,2.5784,2.5794,2.5811,2.583,2.5847,2.5862,2.5885,2.5892,2.5909,2.5911,2.5915,2.5916,2.5917,2.5921,2.5914,2.5914,2.5914,2.5914,2.5914,2.5776,2.5784,2.5796,2.5821,2.5838,2.5859,2.5877,2.589,2.5903,2.5907,2.5916,2.5916,2.5919,2.5911,2.5911,2.5911,2.5911,2.5911,2.5911,2.5762,2.5777,2.579,2.5814,2.5827,2.5846,2.5872,2.5885,2.5903,2.5911,2.5912,2.5921,2.5914,2.5912,2.5911,2.5911,2.5911,2.5911,2.5911,2.5759,2.5764,2.5784,2.5798,2.5829,2.5847,2.5867,2.5893,2.5905,2.5914,2.5925,2.5917,2.5921,2.5921,2.5919,2.592,2.592,2.592,2.592,2.5753,2.5758,2.5785,2.5806,2.5829,2.5851,2.5875,2.5897,2.5919,2.5929,2.5931,2.593,2.593,2.5934,2.5934,2.5933,2.5938,2.5938,2.5938,2.5753,2.5762,2.578,2.5805,2.5832,2.5855,2.5879,2.5903,2.5929,2.5939,2.5937,2.5936,2.5935,2.5934,2.5941,2.5941,2.5939,0,0]}]]